Wetterdaten: Woche 15.01.07 - 21.01.07 (KW3)
Datum Zeit Temperatur Luftfeuchte Luftdruck Niederschlag
15.01.2007 00:00 -0,0 C 97 % 1033 hPa 0,0 l/m
15.01.2007 01:00 -0,5 C 98 % 1032 hPa 0,0 l/m
15.01.2007 02:00 -0,7 C 98 % 1032 hPa 0,0 l/m
15.01.2007 03:00 -0,8 C 98 % 1032 hPa 0,0 l/m
15.01.2007 04:00 -0,9 C 98 % 1031 hPa 0,0 l/m
15.01.2007 05:00 -1,4 C 98 % 1031 hPa 0,0 l/m
15.01.2007 06:00 -1,2 C 98 % 1031 hPa 0,0 l/m
15.01.2007 07:00 -1,2 C 98 % 1031 hPa 0,0 l/m
15.01.2007 08:00 -1,5 C 98 % 1030 hPa 0,0 l/m
15.01.2007 09:00 -1,6 C 98 % 1030 hPa 0,0 l/m
15.01.2007 10:00 -1,2 C 98 % 1031 hPa 0,0 l/m
15.01.2007 11:00 -0,2 C 98 % 1030 hPa 0,0 l/m
15.01.2007 12:00 0,6 C 98 % 1029 hPa 0,0 l/m
15.01.2007 13:00 1,5 C 98 % 1028 hPa 0,0 l/m
15.01.2007 14:00 1,7 C 98 % 1028 hPa 0,0 l/m
15.01.2007 15:00 1,3 C 98 % 1027 hPa 0,0 l/m
15.01.2007 16:00 1,2 C 98 % 1027 hPa 0,0 l/m
15.01.2007 17:00 1,1 C 98 % 1027 hPa 0,0 l/m
15.01.2007 18:00 1,0 C 98 % 1027 hPa 0,0 l/m
15.01.2007 19:00 0,6 C 98 % 1027 hPa 0,0 l/m
15.01.2007 20:00 0,2 C 98 % 1027 hPa 0,0 l/m
15.01.2007 21:00 0,1 C 98 % 1027 hPa 0,0 l/m
15.01.2007 22:00 0,5 C 98 % 1027 hPa 0,0 l/m
15.01.2007 23:00 0,8 C 98 % 1026 hPa 0,0 l/m
16.01.2007 00:00 1,2 C 98 % 1026 hPa 0,0 l/m
16.01.2007 01:00 1,3 C 98 % 1026 hPa 0,0 l/m
16.01.2007 02:00 1,5 C 98 % 1026 hPa 0,0 l/m
16.01.2007 03:00 1,6 C 98 % 1026 hPa 0,0 l/m
16.01.2007 04:00 1,7 C 98 % 1026 hPa 0,0 l/m
16.01.2007 05:00 1,8 C 98 % 1026 hPa 0,0 l/m
16.01.2007 06:00 1,7 C 98 % 1026 hPa 0,0 l/m
16.01.2007 07:00 1,8 C 98 % 1026 hPa 0,0 l/m
16.01.2007 08:00 1,7 C 98 % 1026 hPa 0,0 l/m
16.01.2007 09:00 1,9 C 98 % 1026 hPa 0,0 l/m
16.01.2007 10:00 2,4 C 98 % 1026 hPa 0,0 l/m
16.01.2007 11:00 2,8 C 98 % 1026 hPa 0,0 l/m
16.01.2007 12:00 3,3 C 98 % 1026 hPa 0,0 l/m
16.01.2007 13:00 3,4 C 98 % 1026 hPa 0,0 l/m
16.01.2007 14:00 3,5 C 98 % 1025 hPa 0,0 l/m
16.01.2007 15:00 3,8 C 98 % 1025 hPa 0,0 l/m
16.01.2007 16:00 3,9 C 98 % 1025 hPa 0,0 l/m
16.01.2007 17:00 3,6 C 98 % 1025 hPa 0,0 l/m
16.01.2007 18:00 3,3 C 98 % 1025 hPa 0,0 l/m
16.01.2007 19:00 3,0 C 98 % 1025 hPa 0,0 l/m
16.01.2007 20:00 2,7 C 98 % 1025 hPa 0,0 l/m
16.01.2007 21:00 2,5 C 98 % 1025 hPa 0,0 l/m
16.01.2007 22:00 2,5 C 98 % 1024 hPa 0,0 l/m
16.01.2007 23:00 2,7 C 98 % 1024 hPa 0,0 l/m
17.01.2007 00:00 3,2 C 98 % 1024 hPa 0,0 l/m
17.01.2007 01:00 3,4 C 98 % 1024 hPa 0,0 l/m
17.01.2007 02:00 3,8 C 98 % 1024 hPa 0,0 l/m
17.01.2007 03:00 3,6 C 98 % 1024 hPa 0,0 l/m
17.01.2007 04:00 3,7 C 98 % 1024 hPa 0,0 l/m
17.01.2007 05:00 5,0 C 95 % 1023 hPa 0,0 l/m
17.01.2007 06:00 4,4 C 95 % 1024 hPa 0,0 l/m
17.01.2007 07:00 3,9 C 97 % 1024 hPa 0,0 l/m
17.01.2007 08:00 4,3 C 98 % 1024 hPa 0,0 l/m
17.01.2007 09:00 5,3 C 95 % 1024 hPa 0,0 l/m
17.01.2007 10:00 5,8 C 94 % 1024 hPa 0,0 l/m
17.01.2007 11:00 6,8 C 89 % 1024 hPa 0,0 l/m
17.01.2007 12:00 7,9 C 84 % 1024 hPa 0,0 l/m
17.01.2007 13:00 9,4 C 73 % 1023 hPa 0,0 l/m
17.01.2007 14:00 9,3 C 73 % 1022 hPa 0,0 l/m
17.01.2007 15:00 9,7 C 70 % 1022 hPa 0,0 l/m
17.01.2007 16:00 9,2 C 72 % 1022 hPa 0,0 l/m
17.01.2007 17:00 8,2 C 75 % 1022 hPa 0,0 l/m
17.01.2007 18:00 7,1 C 81 % 1022 hPa 0,0 l/m
17.01.2007 19:00 6,6 C 82 % 1022 hPa 0,0 l/m
17.01.2007 20:00 7,1 C 78 % 1022 hPa 0,0 l/m
17.01.2007 21:00 7,7 C 74 % 1022 hPa 0,0 l/m
17.01.2007 22:00 8,5 C 67 % 1021 hPa 0,0 l/m
17.01.2007 23:00 8,5 C 67 % 1021 hPa 0,0 l/m
18.01.2007 00:00 7,4 C 72 % 1020 hPa 0,0 l/m
18.01.2007 01:00 7,2 C 69 % 1020 hPa 0,0 l/m
18.01.2007 02:00 9,1 C 57 % 1019 hPa 0,0 l/m
18.01.2007 03:00 9,5 C 53 % 1018 hPa 0,0 l/m
18.01.2007 04:00 9,3 C 54 % 1017 hPa 0,0 l/m
18.01.2007 05:00 10,1 C 54 % 1017 hPa 0,0 l/m
18.01.2007 06:00 10,2 C 60 % 1016 hPa 0,0 l/m
18.01.2007 07:00 10,0 C 64 % 1016 hPa 0,0 l/m
18.01.2007 08:00 9,9 C 66 % 1016 hPa 0,0 l/m
18.01.2007 09:00 10,4 C 62 % 1015 hPa 0,0 l/m
18.01.2007 10:00 10,6 C 64 % 1015 hPa 0,0 l/m
18.01.2007 11:00 11,0 C 62 % 1015 hPa 0,0 l/m
18.01.2007 12:00 10,9 C 67 % 1014 hPa 0,0 l/m
18.01.2007 13:00 10,9 C 66 % 1013 hPa 0,0 l/m
18.01.2007 14:00 11,3 C 63 % 1012 hPa 0,0 l/m
18.01.2007 15:00 11,5 C 62 % 1012 hPa 0,0 l/m
18.01.2007 16:00 12,0 C 58 % 1011 hPa 0,0 l/m
18.01.2007 17:00 11,8 C 62 % 1011 hPa 0,0 l/m
18.01.2007 18:00 11,1 C 69 % 1010 hPa 0,0 l/m
18.01.2007 19:00 10,5 C 79 % 1011 hPa 0,0 l/m
18.01.2007 20:00 10,5 C 81 % 1010 hPa 0,0 l/m
18.01.2007 21:00 10,4 C 87 % 1010 hPa 0,0 l/m
18.01.2007 22:00 10,2 C 93 % 1010 hPa 0,0 l/m
18.01.2007 23:00 10,4 C 94 % 1011 hPa 1,0 l/m
19.01.2007 00:00 10,7 C 96 % 1012 hPa 0,0 l/m
19.01.2007 01:00 10,8 C 92 % 1013 hPa 0,0 l/m
19.01.2007 02:00 10,7 C 88 % 1014 hPa 0,0 l/m
19.01.2007 03:00 9,7 C 95 % 1014 hPa 1,0 l/m
19.01.2007 04:00 10,2 C 97 % 1012 hPa 1,0 l/m
19.01.2007 05:00 11,1 C 89 % 1012 hPa 0,0 l/m
19.01.2007 06:00 11,7 C 82 % 1013 hPa 0,0 l/m
19.01.2007 07:00 11,8 C 81 % 1014 hPa 0,0 l/m
19.01.2007 08:00 11,9 C 78 % 1015 hPa 0,0 l/m
19.01.2007 09:00 12,0 C 75 % 1016 hPa 0,0 l/m
19.01.2007 10:00 12,2 C 74 % 1017 hPa 0,0 l/m
19.01.2007 11:00 12,4 C 73 % 1018 hPa 0,0 l/m
19.01.2007 12:00 13,1 C 69 % 1019 hPa 0,0 l/m
19.01.2007 13:00 13,3 C 68 % 1020 hPa 0,0 l/m
19.01.2007 14:00 13,0 C 70 % 1021 hPa 0,0 l/m
19.01.2007 15:00 12,5 C 73 % 1022 hPa 0,0 l/m
19.01.2007 16:00 11,7 C 80 % 1023 hPa 0,0 l/m
19.01.2007 17:00 11,4 C 80 % 1024 hPa 0,0 l/m
19.01.2007 18:00 10,8 C 89 % 1025 hPa 0,0 l/m
19.01.2007 19:00 10,5 C 92 % 1026 hPa 0,0 l/m
19.01.2007 20:00 10,5 C 89 % 1026 hPa 0,0 l/m
19.01.2007 21:00 10,7 C 84 % 1026 hPa 0,0 l/m
19.01.2007 22:00 11,0 C 79 % 1026 hPa 0,0 l/m
19.01.2007 23:00 11,0 C 77 % 1026 hPa 0,0 l/m
20.01.2007 00:00 11,1 C 73 % 1026 hPa 0,0 l/m
20.01.2007 01:00 10,6 C 76 % 1026 hPa 0,0 l/m
20.01.2007 02:00 10,1 C 81 % 1025 hPa 0,0 l/m
20.01.2007 03:00 10,0 C 81 % 1025 hPa 0,0 l/m
20.01.2007 04:00 10,0 C 81 % 1024 hPa 0,0 l/m
20.01.2007 05:00 10,0 C 78 % 1023 hPa 0,0 l/m
20.01.2007 06:00 10,0 C 79 % 1023 hPa 0,0 l/m
20.01.2007 07:00 9,9 C 79 % 1022 hPa 0,0 l/m
20.01.2007 08:00 9,6 C 79 % 1022 hPa 0,0 l/m
20.01.2007 09:00 9,7 C 78 % 1022 hPa 0,0 l/m
20.01.2007 10:00 10,0 C 76 % 1022 hPa 0,0 l/m
20.01.2007 11:00 10,6 C 74 % 1022 hPa 0,0 l/m
20.01.2007 12:00 11,0 C 73 % 1022 hPa 0,0 l/m
20.01.2007 13:00 11,1 C 72 % 1021 hPa 0,0 l/m
20.01.2007 14:00 11,2 C 71 % 1021 hPa 0,0 l/m
20.01.2007 15:00 11,4 C 70 % 1021 hPa 0,0 l/m
20.01.2007 16:00 11,3 C 67 % 1021 hPa 0,0 l/m
20.01.2007 17:00 10,8 C 66 % 1021 hPa 0,0 l/m
20.01.2007 18:00 10,3 C 68 % 1021 hPa 0,0 l/m
20.01.2007 19:00 10,3 C 66 % 1020 hPa 0,0 l/m
20.01.2007 20:00 9,9 C 66 % 1020 hPa 0,0 l/m
20.01.2007 21:00 9,8 C 68 % 1020 hPa 0,0 l/m
20.01.2007 22:00 9,7 C 67 % 1020 hPa 0,0 l/m
20.01.2007 23:00 9,5 C 67 % 1019 hPa 0,0 l/m
21.01.2007 00:00 9,6 C 65 % 1018 hPa 0,0 l/m
21.01.2007 01:00 9,8 C 63 % 1018 hPa 0,0 l/m
21.01.2007 02:00 9,9 C 62 % 1018 hPa 0,0 l/m
21.01.2007 03:00 9,6 C 66 % 1017 hPa 0,0 l/m
21.01.2007 04:00 9,2 C 73 % 1016 hPa 0,0 l/m
21.01.2007 05:00 9,1 C 75 % 1016 hPa 0,0 l/m
21.01.2007 06:00 9,2 C 75 % 1016 hPa 0,0 l/m
21.01.2007 07:00 7,5 C 88 % 1016 hPa 2,0 l/m
21.01.2007 08:00 6,3 C 88 % 1016 hPa 0,0 l/m
21.01.2007 09:00 6,1 C 78 % 1017 hPa 0,0 l/m
21.01.2007 10:00 6,1 C 68 % 1018 hPa 0,0 l/m
21.01.2007 11:00 6,9 C 55 % 1019 hPa 0,0 l/m
21.01.2007 12:00 7,8 C 49 % 1019 hPa 0,0 l/m
21.01.2007 13:00 7,8 C 47 % 1020 hPa 0,0 l/m
21.01.2007 14:00 8,0 C 46 % 1020 hPa 0,0 l/m
21.01.2007 15:00 7,1 C 46 % 1020 hPa 0,0 l/m
21.01.2007 16:00 6,7 C 51 % 1020 hPa 0,0 l/m
21.01.2007 17:00 5,0 C 59 % 1020 hPa 0,0 l/m
21.01.2007 18:00 4,5 C 59 % 1020 hPa 0,0 l/m
21.01.2007 19:00 3,8 C 65 % 1020 hPa 0,0 l/m
21.01.2007 20:00 3,5 C 69 % 1020 hPa 0,0 l/m
21.01.2007 21:00 3,1 C 70 % 1020 hPa 0,0 l/m
21.01.2007 22:00 3,1 C 72 % 1020 hPa 0,0 l/m
21.01.2007 23:00 2,9 C 73 % 1020 hPa 0,0 l/m
Min-Datum _ 15.01.07 21.01.07 18.01.07 -
_ Min-Zeit 08:40 14:28 16:35 -
Minimum _ -1,7 C 42 % 1010 hPa -
Max-Datum _ 19.01.07 15.01.07 15.01.07 21.01.07
_ Max-Zeit 13:21 01:20 00:00 07:17
Maximum _ 13,3 C 98 % 1033 hPa 2,0 l/m
Durchschnitt _ 6,8 C 81 % 1022 hPa #5,0 l/m

Durchschnitt Minimum Temp.6,6 C
Durchschnitt Maximum Temp.7,1 C